Fairbanks Eiels, AK

3:49 AM AKDT on August 19, 2017 (GMT -0800)
Eielson Air Force Base

Weather History for PAEI - September, 2013

Change the Weather History Date:

Friday, September 27, 2013

  Actual Average Record
Temperature  
Mean Temperature 46 °F -  
Max Temperature 58 °F 48 °F 64 °F (1966)
Min Temperature 33 °F 30 °F 5 °F (1983)
Degree Days  
Heating Degree Days 20    
Moisture  
Dew Point 34 °F    
Average Humidity 71    
Maximum Humidity 96    
Minimum Humidity 38    
Precipitation  
Precipitation 0.00 in - - ()
Sea Level Pressure  
Sea Level Pressure 29.20 in    
Wind  
Wind Speed 4 mph (NNE)    
Max Wind Speed 10 mph    
Max Gust Speed -    
Visibility 10 miles    
Events      
Averages and records for this station are not official NWS values.
T = Trace of Precipitation, MM = Missing Value Source: NWS Daily Summary

Daily Weather History Graph

Daily Weather History Graph

Search for Another Location

Airport or City:

Trip Planner

Search our weather history database for the weather conditions in past years. The results will help you decide how hot, cold, wet, or windy it might be!

Date:

Astronomy

Sep. 27, 2013 Rise Set
Actual Time 7:47 AM AKDT 7:29 PM AKDT
Civil Twilight 6:58 AM AKDT 8:17 PM AKDT
Nautical Twilight 6:00 AM AKDT 9:15 PM AKDT
Astronomical Twilight 4:55 AM AKDT 10:19 PM AKDT
Moon 11:50 PM AKDT (9/27) 5:12 PM AKDT (9/27)
Length of Visible Light 13h 19m
Length of Day
11h 42m
Last Quarter, 44% of the Moon is Illuminated
Sep 27
Last Quarter
Oct 4
New
Oct 11
First Quarter
Oct 18
Full
Oct 26
Last Quarter

Hourly Weather History & Observations

Time (AKDT) Temp. Windchill Dew Point Humidity Pressure Visibility Wind Dir Wind Speed Gust Speed Precip Events Conditions
12:58 AM 35.4 °F - 34.3 °F 96% 29.30 in 10.0 mi Calm Calm - N/A   Partly Cloudy
1:58 AM 35.2 °F 32.4 °F 33.4 °F 93% 29.27 in 10.0 mi North 3.5 mph - N/A   Clear
2:58 AM 33.4 °F 26.6 °F 31.3 °F 92% 29.25 in 10.0 mi North 8.1 mph - N/A   Clear
3:58 AM 33.8 °F - 30.6 °F 88% 29.22 in 10.0 mi NE 1.2 mph - N/A   Clear
4:58 AM 37.6 °F 34.0 °F 32.2 °F 81% 29.20 in 10.0 mi ENE 4.6 mph - N/A   Clear
5:58 AM 37.6 °F 33.1 °F 32.2 °F 81% 29.19 in 10.0 mi Variable 5.8 mph - N/A   Overcast
6:58 AM 39.0 °F 34.8 °F 32.2 °F 76% 29.18 in 10.0 mi North 5.8 mph - N/A   Overcast
7:58 AM 38.7 °F 35.2 °F 32.5 °F 79% 29.17 in 10.0 mi Variable 4.6 mph - N/A   Overcast
8:58 AM 40.1 °F 36.1 °F 33.8 °F 78% 29.17 in 10.0 mi Variable 5.8 mph - N/A   Overcast
9:58 AM 41.2 °F 38.2 °F 35.4 °F 80% 29.17 in 10.0 mi Variable 4.6 mph - N/A   Mostly Cloudy
10:58 AM 46.9 °F - 35.8 °F 65% 29.17 in 10.0 mi North 5.8 mph - N/A   Mostly Cloudy
11:58 AM 52.5 °F - 33.6 °F 49% 29.17 in 10.0 mi Variable 1.2 mph - N/A   Clear
12:58 PM 54.3 °F - 33.3 °F 45% 29.17 in 10.0 mi ESE 10.4 mph - N/A   Clear
1:58 PM 56.5 °F - 33.6 °F 42% 29.17 in 10.0 mi East 4.6 mph - N/A   Clear
2:58 PM 58.3 °F - 32.9 °F 38% 29.17 in 10.0 mi SE 9.2 mph - N/A   Clear
3:58 PM 56.3 °F - 34.2 °F 43% 29.17 in 10.0 mi Variable 5.8 mph - N/A   Clear
4:58 PM 55.0 °F - 36.5 °F 50% 29.17 in 10.0 mi Variable 5.8 mph - N/A   Clear
5:58 PM 55.2 °F - 35.6 °F 48% 29.18 in 10.0 mi Variable 5.8 mph - N/A   Partly Cloudy
6:58 PM 49.3 °F - 34.9 °F 58% 29.19 in 10.0 mi WSW 3.5 mph - N/A   Clear
7:58 PM 43.2 °F 41.5 °F 34.9 °F 73% 29.21 in 10.0 mi Variable 3.5 mph - N/A   Scattered Clouds
8:58 PM 39.4 °F - 33.8 °F 80% 29.22 in 10.0 mi Calm Calm - N/A   Clear
9:58 PM 36.0 °F - 33.1 °F 89% 29.24 in 10.0 mi Calm Calm - N/A   Scattered Clouds
10:58 PM 36.9 °F - 32.7 °F 85% 29.25 in 10.0 mi North 1.2 mph - N/A   Partly Cloudy
11:58 PM 35.4 °F - 31.8 °F 87% 29.26 in 10.0 mi North 1.2 mph - N/A   Clear